Regional Weather Roundup
Issued by NWS Bismarck, ND

Home | Current Version | Previous Version | Text Only | Print | Product List | Glossary On
Versions: 1 2 3 4 5 6 7 8 9 10 11 12 13 14 15 16 17 18 19 20 21 22 23 24 25 26 27 28 29 30 31 32 33 34 35 36 37 38 39 40 41 42 43 44 45 46 47 48 49 50
000
ASUS43 KBIS 171610
RWRBIS

NWR BROADCAST TEXT
NATIONAL WEATHER SERVICE BISMARCK ND
1000 AM CST FRI NOV 17 2017

NOTE: "FAIR" INDICATES FEW OR NO CLOUDS BELOW 12,000 FEET WITH NO
SIGNIFICANT WEATHER AND/OR OBSTRUCTIONS TO VISIBILITY.


CITY           SKY/WX    TMP DP  RH WIND       PRES   REMARKS
WILLISTON      MOSUNNY   19  11  70 CALM      29.71R
MINOT          MOSUNNY   18  10  71 W10       29.70R WCI   6
MINOT AFB      MOSUNNY   15   9  75 NW9       29.70R WCI   4
BISMARCK       CLOUDY    34  25  69 N7        29.72R
DICKINSON      CLOUDY    31  25  78 NW6       29.65R
GARRISON         N/A     21  14  74 NW8       29.69S WCI  11
HETTINGER ARPT CLOUDY    35  28  75 NW3       29.68R
JAMESTOWN      CLOUDY    27  20  75 NW14      29.68R WCI  16
CARRINGTON     FAIR      21  14  73 NW16      29.72R WCI   7
HAZEN          CLOUDY    27  19  74 CALM      29.74R
LINTON           N/A     34  23  64 N9        29.71R
MANDAN         PTSUNNY   28  21  74 N8        29.71R
OAKES            N/A     36  32  87 MISG      29.66R
RUGBY          FAIR      12  10  92 W15       29.69S WCI  -4
STANLEY        FAIR      14  10  85 W6        29.70S WCI   5
TIOGA          FAIR      12   9  85 CALM      29.70R
WATFORD CITY   FAIR      19  14  79 CALM      29.70R
$$

CITY           SKY/WX    TMP DP  RH WIND       PRES   REMARKS
GRAND FORKS    CLOUDY    29  20  69 NW15      29.67R WCI  18
GRAND FORKS AF CLOUDY    27  18  67 N16       29.67R WCI  15
DEVILS LAKE    CLOUDY    17  12  80 NW13      29.70R WCI   4
FARGO          CLOUDY    35  29  78 W5        29.64R
CANDO          FAIR      16  14  93 NW13      29.71R WCI   2
CAVALIER       FAIR      19  12  73 W9        29.67S WCI   9
GRAFTON        FAIR      23  16  74 NW18      29.69S WCI   9
GWINNER          N/A     37  30  75 NW10G17   29.65R
LANGDON        FAIR      16  12  86 NW20      29.65R WCI  -1
ROLLA          FAIR      12   9  85 W5        29.67R WCI   4
WALHALLA       FAIR      19  12  73 W12       29.67R WCI   7
$$

CITY           SKY/WX    TMP DP  RH WIND       PRES   REMARKS
ABERDEEN       CLOUDY    41  33  73 N13       29.67R
MOBRIDGE       PTSUNNY   41  31  67 W6        29.68R
BUFFALO          N/A     37  33  85 W3        29.61R
RAPID CITY     CLOUDY    37  35  92 CALM      29.69F
GLASGOW        PTSUNNY   25  25 100 E9        29.62S FOG     WCI  15
SIDNEY         MOSUNNY   18  15  88 N5        29.70R WCI  11
WOLF POINT     SUNNY     20  16  84 E7        29.67S WCI  11
GLENDIVE       CLOUDY    29  26  89 CALM      29.65F
MILES CITY     CLOUDY    32  31  96 S8        29.65S
BAKER          CLOUDY    37  31  78 S6        29.65F
$$

CITY           SKY/WX    TMP DP  RH WIND       PRES   REMARKS
BILLINGS       PTSUNNY   34  30  85 CALM      29.64R
GREAT FALLS    SUNNY     36  22  56 SW14      29.61R
REGINA         MOSUNNY    5   0  78 W7        29.66S WCI  -7
ESTEVAN        MOSUNNY   12   7  79 W10       29.68R WCI  -1
$$




USA.gov is the U.S. government's official web portal to all federal, state and local government web resources and services.